Probability
0 0 0 0 0 0 0 0 0 0 0 0 0 0 1 2 4 15 35 50 57 63 68 73 74 73 72 71 67 62 57 52 43 35 33 31 29 31 31 31 32 31 29 30
0 0 0 0 0 0 0 0 0 0 0 0 0 0 1 2 4 13 27 41 52 62 69 72 71 69 68 68 66 61 57 52 44 37 33 30 28 27 24 26 31 31 29 29
0 0 0 0 0 0 0 0 0 0 0 0 0 0 1 2 5 10 17 28 43 57 67 70 68 64 63 64 64 60 56 51 43 37 31 27 25 21 17 21 27 28 26 27
0 0 0 0 0 0 0 0 0 0 0 0 0 1 2 2 4 8 12 20 32 47 60 67 66 61 59 58 59 59 56 49 41 35 30 25 19 15 13 17 23 23 22 22
0 0 0 0 0 0 0 0 0 0 0 0 0 0 1 1 3 6 10 17 26 38 52 62 63 59 55 52 51 54 54 49 40 34 31 26 18 12 11 16 20 19 18 19
0 0 0 0 0 0 0 0 0 0 0 0 0 0 0 1 2 4 10 16 24 33 46 56 58 56 53 48 46 47 49 46 39 33 31 28 22 15 14 16 17 15 15 16
0 0 0 0 0 0 0 0 0 0 0 0 0 0 1 3 3 4 9 15 20 29 42 52 54 53 51 47 44 44 43 41 38 35 33 31 25 18 15 15 14 12 11 12
0 0 0 0 0 0 0 0 0 0 0 0 0 0 2 3 3 4 7 10 15 24 38 48 51 50 47 42 39 40 40 38 36 35 33 31 25 17 13 13 12 10 10 9
0 0 0 0 0 0 0 0 0 0 0 0 0 1 4 3 2 4 5 8 13 22 32 41 44 43 38 34 33 35 37 36 32 30 29 27 23 17 14 12 10 8 9 9
0 0 0 0 0 0 0 0 0 0 0 0 0 2 5 5 4 4 6 8 14 21 27 33 38 36 32 29 29 30 32 31 27 24 23 22 21 18 15 11 9 8 9 11
0 0 0 0 0 0 0 0 0 0 0 0 0 2 6 7 5 4 7 12 17 22 26 30 33 33 30 27 25 24 24 23 21 21 21 20 20 18 15 12 10 9 11 13
0 0 0 0 0 0 0 0 0 0 0 0 1 3 6 6 6 7 13 20 24 26 27 30 31 31 29 25 22 21 19 18 19 19 21 21 21 19 17 14 13 12 12 13
0 0 0 0 0 0 0 0 0 0 0 0 2 5 7 8 11 16 23 29 32 31 30 30 33 33 31 28 24 21 19 19 19 20 21 21 19 18 17 16 15 15 14 12
0 0 0 0 0 0 0 0 0 0 0 0 4 9 12 16 19 24 32 38 39 38 35 35 38 38 37 35 29 23 20 20 21 21 21 19 16 14 15 16 16 16 14 12
0 0 0 0 0 0 0 0 0 0 0 1 6 12 17 23 26 28 36 42 44 42 40 40 41 42 41 38 33 27 24 23 22 20 18 17 15 12 12 14 16 16 14 12
0 0 0 0 0 0 0 0 0 0 0 2 7 13 21 28 29 29 34 42 46 45 45 45 47 49 44 38 33 29 27 24 20 16 14 15 14 13 12 13 15 16 14 11
2 2 1 0 0 0 0 0 0 0 1 5 11 20 30 36 36 33 36 44 50 52 52 53 56 58 50 39 33 30 27 23 19 15 14 15 15 15 14 14 15 15 13 10
6 7 4 0 0 0 0 0 0 1 3 9 20 32 43 49 48 46 48 54 59 62 62 61 59 58 51 41 34 30 28 26 21 17 17 18 18 17 17 17 15 13 12 11
8 11 6 0 0 0 0 0 0 2 6 15 28 43 51 54 55 57 61 65 67 66 64 59 54 52 48 41 36 32 30 29 25 21 21 22 21 20 20 18 15 14 15 15
6 8 4 0 0 0 0 0 1 5 16 28 40 51 56 58 60 63 66 67 65 61 57 53 50 49 46 39 36 32 31 32 30 27 26 25 24 22 22 20 18 17 18 18
2 4 3 0 0 2 4 6 10 21 36 49 59 64 68 71 72 69 66 61 57 52 49 49 48 46 43 40 36 33 33 35 34 31 28 26 23 20 21 21 19 16 14 14
3 5 5 5 9 19 26 28 34 46 55 63 70 72 75 76 73 66 59 53 48 42 41 42 42 40 38 37 34 32 33 35 34 30 25 22 18 16 16 18 15 11 9 8
9 12 14 18 29 44 51 52 54 58 60 64 67 66 64 62 58 53 50 45 38 32 30 31 33 33 31 29 28 28 30 30 28 25 21 18 15 13 13 13 11 8 5 4
17 21 27 33 42 50 54 53 51 51 52 56 57 53 49 46 44 43 42 37 30 24 20 21 24 27 25 23 22 23 23 23 21 19 18 16 14 12 10 8 6 4 3 2
19 24 33 41 43 43 42 39 36 37 40 42 43 43 41 38 37 37 35 29 23 18 14 14 18 20 19 18 17 16 15 14 15 15 15 14 12 9 5 3 2 1 1 1
16 20 31 43 45 41 36 30 28 30 33 34 35 36 37 36 35 34 29 22 17 15 13 13 15 14 13 13 14 13 10 9 11 12 11 11 10 6 2 0 0 0 0 0
Wind_Speed
12 12 13 14 15 14 14 14 12 7 4 5 8 9 5 4 3 5 7 8 10 10 10 10 11 11 11 10 10 10 10 10 8 6 6 5 4 3 3 4 6 6 5 5
13 16 17 16 13 12 12 13 13 10 6 6 10 10 6 4 5 5 7 9 10 10 10 11 10 10 11 10 10 10 10 10 9 6 5 4 4 3 3 3 5 6 5 5
19 15 12 14 14 13 12 13 12 11 9 9 11 11 7 3 3 5 7 8 8 11 11 11 11 10 11 11 11 10 10 10 10 8 5 4 3 2 3 3 3 4 5 5
18 19 13 11 13 13 12 12 12 12 11 9 11 8 3 3 4 5 6 7 8 8 11 11 11 10 11 11 11 10 10 9 8 8 7 8 6 5 5 4 4 5 5 5
15 15 15 14 14 13 13 12 10 11 11 12 12 10 3 5 4 5 7 7 9 10 10 11 10 10 10 10 10 9 9 9 9 8 8 8 6 5 4 4 5 5 5 5
18 15 13 14 13 13 12 11 11 12 11 13 13 11 5 4 5 5 7 8 8 9 10 10 9 8 8 9 9 9 9 9 9 9 8 8 8 7 6 5 5 5 4 4
19 19 16 12 13 13 12 10 8 9 9 8 9 8 3 8 6 5 7 9 8 8 9 10 9 8 8 9 9 9 9 8 8 9 8 8 8 7 7 6 6 6 5 5
17 16 18 15 14 13 13 14 11 9 5 3 6 6 2 6 8 7 7 8 7 9 10 10 10 9 8 8 8 8 8 8 7 8 7 7 7 5 5 6 5 5 4 5
12 14 15 16 15 16 15 14 15 14 13 9 8 7 3 4 7 7 8 9 7 7 10 10 10 9 8 7 7 7 7 7 6 7 6 6 6 5 5 5 5 3 3 4
18 12 9 12 12 15 16 13 9 11 10 11 7 3 1 4 4 6 8 9 9 8 9 10 9 9 8 7 6 5 6 5 5 6 5 5 5 5 5 4 5 4 3 3
19 14 12 11 13 14 14 14 12 9 9 10 6 1 1 2 5 7 8 10 10 10 10 8 7 8 8 8 7 6 6 5 5 5 4 4 4 5 4 4 4 4 3 3
16 12 12 12 13 14 14 14 13 10 9 10 9 2 6 7 6 5 8 9 10 10 10 10 8 7 7 8 7 6 6 5 4 4 4 4 4 4 4 4 4 4 4 4
11 10 11 12 12 14 14 14 14 12 10 10 10 3 7 6 5 6 7 8 9 9 10 10 8 7 7 7 6 7 6 5 5 4 4 4 4 4 4 4 4 4 4 4
6 10 13 14 8 8 13 14 13 14 11 11 9 6 6 5 5 5 6 6 9 9 8 8 7 6 6 6 6 5 5 5 5 4 4 4 4 4 4 4 4 4 4 4
8 12 14 16 15 12 12 13 15 15 14 12 6 3 5 7 8 6 7 7 9 9 8 8 7 6 6 6 5 5 5 5 4 4 4 4 4 4 4 5 5 5 5 5
9 11 13 16 18 16 13 13 14 15 14 12 7 3 7 6 6 7 7 8 8 8 8 8 8 7 6 5 5 5 5 5 5 4 4 5 5 5 5 5 6 6 6 5
12 10 13 14 16 16 16 13 13 12 11 9 6 5 10 10 7 5 6 8 8 8 7 8 7 7 6 5 5 5 5 5 5 5 5 5 5 6 6 6 6 6 6 6
8 9 9 13 15 17 11 11 12 11 9 6 5 11 12 11 9 5 4 7 8 8 8 8 7 7 6 6 5 5 6 6 6 6 5 5 6 6 7 7 7 6 6 6
9 8 10 11 15 15 12 9 8 7 6 3 6 12 12 12 11 7 7 8 8 8 8 7 7 7 6 6 5 5 5 6 5 5 5 5 6 7 7 7 7 6 7 7
12 8 10 12 13 12 6 5 5 6 6 2 6 10 11 11 6 7 8 9 9 8 7 6 7 7 7 5 5 5 5 5 5 5 5 5 6 6 7 7 7 7 7 8
16 13 14 15 14 10 4 2 1 5 1 5 7 8 10 7 7 10 10 9 8 7 7 7 7 6 5 5 5 4 4 4 4 5 6 6 6 6 7 7 7 8 9 10
16 14 14 14 15 9 2 3 2 4 5 6 11 11 13 14 13 11 9 8 8 7 7 7 6 6 5 4 5 5 4 5 5 6 6 6 7 6 7 8 8 8 9 11
10 8 6 6 4 5 7 8 7 7 6 7 10 11 12 12 11 10 8 7 7 6 6 5 6 6 5 4 4 5 4 5 6 7 7 7 8 7 7 8 8 8 7 8
3 2 4 4 6 7 8 8 7 7 7 8 9 9 10 10 10 9 8 7 6 5 4 4 5 6 5 5 4 5 5 6 7 7 7 8 9 9 8 6 6 6 6 7
2 2 1 5 8 8 7 7 7 6 8 8 9 9 9 9 9 9 8 7 6 5 4 5 5 6 5 5 5 5 5 7 8 8 8 9 9 9 9 10 8 7 7 5
1 1 1 2 3 5 8 8 7 6 7 8 8 8 8 8 8 8 7 7 6 6 6 6 6 6 6 6 6 5 5 6 8 8 8 7 7 8 9 10 11 18 14 16
Wind_Direction
217 232 240 243 239 255 281 297 297 293 274 272 281 282 258 205 204 168 157 158 161 163 157 153 157 161 164 166 168 169 171 166 167 173 179 183 185 185 178 170 159 165 177 170
228 231 242 257 264 266 275 281 283 283 273 271 280 280 267 219 199 175 170 166 159 155 155 154 158 164 167 170 172 172 174 171 175 179 177 177 176 187 186 180 159 170 171 174
232 242 232 240 254 258 263 267 276 285 286 269 268 267 251 238 215 176 167 157 158 157 159 162 166 171 170 171 173 175 176 177 180 175 169 173 167 183 189 170 166 176 173 183
237 248 254 251 251 252 257 260 268 276 278 276 273 270 226 187 209 185 159 151 153 155 159 162 169 173 174 172 171 170 173 176 179 178 178 179 185 191 190 175 173 180 184 186
237 237 243 246 250 252 260 277 278 274 272 272 272 271 231 170 199 180 159 156 146 157 161 156 167 171 172 170 169 169 169 175 179 185 187 190 193 190 184 175 177 184 184 189
250 247 237 243 245 248 257 266 267 264 263 257 257 259 231 155 165 159 141 140 139 148 146 147 154 152 159 164 167 168 170 176 180 187 191 195 194 188 183 183 182 185 184 191
241 246 243 238 245 236 233 244 249 243 240 258 275 260 215 140 138 124 129 131 135 135 136 139 143 149 157 165 167 168 171 176 179 185 192 193 197 195 194 190 192 193 191 195
227 231 227 227 232 243 226 232 243 261 258 285 297 271 223 131 117 117 121 125 137 140 137 138 144 152 156 162 164 166 169 175 181 186 192 194 193 195 201 199 198 198 202 197
240 230 214 210 219 235 239 234 249 263 270 255 210 206 148 115 130 135 131 128 127 130 133 137 142 146 148 152 152 159 159 169 180 187 186 188 188 193 197 192 202 202 198 192
258 268 226 198 208 223 244 244 245 258 273 276 255 208 160 162 154 153 145 136 131 140 138 137 140 140 144 143 139 140 145 157 168 175 180 181 184 188 187 189 192 194 191 185
239 256 248 210 207 222 218 240 252 265 266 272 274 185 120 193 212 173 155 139 142 141 124 120 128 133 135 134 136 139 137 146 157 164 167 170 175 180 182 184 184 181 173 161
219 237 250 234 216 220 229 229 230 243 260 272 279 176 171 192 198 169 140 127 120 121 122 127 133 133 136 137 136 135 139 145 146 149 154 166 168 169 171 175 177 172 162 156
212 231 241 242 228 213 225 226 228 234 248 259 267 140 177 163 140 121 110 113 118 119 122 126 130 135 132 129 130 135 142 141 142 145 150 152 160 162 164 166 167 157 150 147
231 228 240 243 236 220 225 231 229 233 239 245 252 174 171 107 86 100 115 129 128 124 121 123 126 124 118 118 118 128 132 130 136 137 135 134 137 139 142 142 138 133 130 126
240 232 239 259 267 256 236 231 231 233 243 254 257 183 145 145 139 152 155 143 127 126 127 125 126 119 121 119 120 119 115 114 120 125 129 132 125 124 125 122 121 118 116 119
225 251 246 249 258 259 249 234 232 233 234 243 242 169 118 108 124 153 155 141 134 132 130 129 129 125 125 124 127 123 119 118 118 122 124 122 120 119 118 114 110 109 109 108
214 227 251 255 251 254 249 246 246 243 244 244 238 156 137 139 137 157 152 141 135 131 130 127 124 124 125 126 126 128 124 125 123 121 119 121 122 120 115 114 109 105 103 102
230 215 230 251 258 254 255 256 249 244 243 239 146 127 126 125 123 119 122 125 122 119 115 114 117 115 117 121 122 130 132 129 129 128 127 125 124 119 115 111 110 108 105 104
231 229 237 243 246 247 248 250 251 246 235 186 133 123 128 130 126 105 93 96 98 101 101 104 112 118 119 118 119 126 131 131 133 131 128 128 129 125 123 120 117 114 110 104
230 223 235 243 249 249 253 272 278 245 212 157 131 138 145 150 157 123 106 99 93 91 97 101 100 103 105 103 110 124 130 132 133 131 130 128 126 124 125 123 120 114 109 106
217 216 224 237 246 253 261 105 331 241 174 84 102 125 133 115 93 111 109 100 95 93 97 100 99 99 99 103 104 108 106 105 107 114 117 119 120 121 121 118 116 113 110 105
210 213 218 231 239 242 10 146 144 88 52 80 91 93 98 100 106 110 108 107 103 97 92 93 97 95 94 100 110 109 103 99 99 103 107 110 113 115 116 116 115 115 116 112
214 214 216 221 215 86 69 83 86 95 85 76 89 100 110 115 116 115 111 105 100 93 89 89 97 98 89 87 99 109 107 108 106 105 105 104 104 99 105 114 119 118 115 114
219 192 177 141 125 108 93 87 84 81 88 90 95 100 110 116 118 116 110 102 93 86 89 95 98 94 90 87 89 96 100 104 111 112 109 108 107 99 91 89 93 100 108 115
336 298 198 148 136 120 105 97 94 90 100 101 102 103 108 113 115 111 107 103 100 95 82 84 90 93 88 88 89 96 105 111 111 110 109 106 101 99 90 78 65 76 70 97
265 243 190 140 121 124 125 120 125 121 109 104 105 104 105 110 113 112 107 102 98 93 86 86 88 93 90 88 92 98 106 120 124 120 114 109 109 105 103 99 81 61 70 74